{"data":{"norad_id":64915,"epoch":"2026-09-20T03:41:25.140480Z","epoch_age_seconds":154154,"freshness":"FRESH","line1":"1 64915U 25157M   26263.15376320  .00017750  00000+0  53504-3 0  9990","line2":"2 64915  53.1584 159.0997 0001305  91.1713 268.9439 15.34411736 65944","mean_motion":15.34411736,"eccentricity":0.0001305,"inclination_deg":53.1584,"raan_deg":159.0997,"arg_perigee_deg":91.1713,"mean_anomaly_deg":268.9439,"bstar":0.00053504,"rev_number":6594,"period_min":93.847040283587,"perigee_km":461.77563346489,"apogee_km":463.56108366348,"semimajor_km":6840.8053585642,"source":"CELESTRAK","updated_at":"2026-09-21T09:00:35.456242Z"}}